Weather History for Osceola Municipal, IA

Change the Weather History Date:

Sunday, November 11, 2012

  Actual Average (KLWD) Record (KLWD)
Temperature  
Mean Temperature 7 °C 6 °C  
Max Temperature 19 °C 11 °C 23 °C (1964)
Min Temperature -5 °C 1 °C -15 °C (1986)
Degree Days  
Heating Degree Days 20 23  
Month to date heating degree days 226  
Since 1 July heating degree days 710  
Cooling Degree Days 0 0  
Month to date cooling degree days 0  
Year to date cooling degree days 946  
Moisture  
Dew Point 1 °C    
Average Humidity 83    
Maximum Humidity 94    
Minimum Humidity 54    
Precipitation  
Precipitation 20.07 mm 2.03 mm 4.62 mm (1982)
Month to date precipitation 1.08  
Sea Level Pressure  
Sea Level Pressure 1011 hPa    
Wind  
Wind Speed 19 km/h (West)    
Max Wind Speed 29 km/h    
Max Gust Speed 39 km/h    
Visibility 14 kilometers    
Events Rain , Snow    
T = Trace of Precipitation, MM = Missing Value Source: NWS Daily Summary

Daily Weather History Graph

Daily Weather History Graph

Search for Another Location

Airport:

Trip Planner

Search our weather history database for the weather conditions in past years. The results will help you decide how hot, cold, wet, or windy it might be!

Date:

Astronomy

Nov. 11, 2012 Rise Set
Actual Time 6:58 AM CST 4:59 PM CST
Civil Twilight 6:28 AM CST 5:28 PM CST
Nautical Twilight 5:55 AM CST 6:01 PM CST
Astronomical Twilight 5:23 AM CST 6:33 PM CST
Moon 4:11 AM CST (11/11) 3:23 PM CST (11/11)
Length of Visible Light 10h 59m
Length of Day
10h 00m
Waning Crescent, 7% of the Moon is Illuminated
Nov 11
Waning Crescent
Nov 13
New
Nov 20
First Quarter
Nov 28
Full
Dec 6
Last Quarter

Hourly Weather History & Observations

Time (CST) Temp. Windchill Dew Point Humidity Pressure Visibility Wind Dir Wind Speed Gust Speed Precip Events Conditions
12:15 AM 19.1 °C - 9.5 °C 54% 1005.3 hPa 16.1 km South 25.9 km/h / 7.2 m/s 37.0 km/h / 10.3 m/s N/A   Mostly Cloudy
12:35 AM 19.1 °C - 9.9 °C 55% 1005.6 hPa 16.1 km South 24.1 km/h / 6.7 m/s 37.0 km/h / 10.3 m/s N/A   Overcast
12:55 AM 19.3 °C - 10.5 °C 57% 1006.0 hPa 16.1 km SSW 20.4 km/h / 5.7 m/s 29.6 km/h / 8.2 m/s N/A   Overcast
1:15 AM 19.1 °C - 10.5 °C 57% 1006.0 hPa 16.1 km SSW 22.2 km/h / 6.2 m/s - N/A   Overcast
1:35 AM 18.5 °C - 10.5 °C 60% 1006.3 hPa 16.1 km SW 20.4 km/h / 5.7 m/s - N/A   Overcast
1:55 AM 15.8 °C - 12.1 °C 79% 1006.3 hPa 16.1 km SSW 18.5 km/h / 5.1 m/s - 0.3 mm Rain Light Rain
2:15 AM 15.4 °C - 12.2 °C 81% 1006.3 hPa 16.1 km South 14.8 km/h / 4.1 m/s - N/A Rain Light Rain
2:35 AM 15.3 °C - 12.2 °C 82% 1007.0 hPa 16.1 km South 20.4 km/h / 5.7 m/s - N/A Rain Light Rain
2:55 AM 15.1 °C - 12.0 °C 82% 1005.6 hPa 16.1 km South 14.8 km/h / 4.1 m/s - N/A   Light Drizzle
3:15 AM 14.9 °C - 12.0 °C 83% 1005.3 hPa 16.1 km SSE 14.8 km/h / 4.1 m/s - N/A   Overcast
3:35 AM 14.6 °C - 12.0 °C 84% 1004.6 hPa 16.1 km SE 13.0 km/h / 3.6 m/s - N/A   Overcast
3:55 AM 14.6 °C - 12.0 °C 84% 1004.6 hPa 16.1 km SE 13.0 km/h / 3.6 m/s - N/A   Overcast
4:15 AM 14.9 °C - 12.1 °C 83% 1005.0 hPa 16.1 km South 13.0 km/h / 3.6 m/s - N/A   Overcast
4:35 AM 14.6 °C - 12.5 °C 87% 1006.0 hPa 8.0 km South 16.7 km/h / 4.6 m/s - 4.1 mm Rain Rain
4:55 AM 14.3 °C - 12.6 °C 90% 1005.3 hPa 11.3 km SSE 16.7 km/h / 4.6 m/s - 5.8 mm Rain Light Rain
5:35 AM 14.2 °C - 12.7 °C 91% 1004.6 hPa 11.3 km SE 7.4 km/h / 2.1 m/s - 1.8 mm Rain Rain
5:55 AM 14.1 °C - 12.7 °C 91% 1004.3 hPa 16.1 km SE 7.4 km/h / 2.1 m/s - 2.0 mm Rain Light Rain
6:15 AM 14.2 °C - 12.8 °C 91% 1005.0 hPa 11.3 km South 7.4 km/h / 2.1 m/s - 0.8 mm Rain Light Rain
6:35 AM 8.6 °C - 7.0 °C 90% 1005.3 hPa 8.0 km NW 29.6 km/h / 8.2 m/s 37.0 km/h / 10.3 m/s 2.0 mm Rain Heavy Rain
6:55 AM 6.3 °C 2.1 °C 5.0 °C 91% 1006.0 hPa 6.4 km NW 25.9 km/h / 7.2 m/s - 3.3 mm Rain Light Rain
7:35 AM 5.0 °C 0.4 °C 3.8 °C 92% 1007.7 hPa 11.3 km WNW 25.9 km/h / 7.2 m/s 38.9 km/h / 10.8 m/s 1.8 mm Rain Rain
8:15 AM 3.2 °C -0.7 °C 2.0 °C 92% 1007.3 hPa 4.8 km NW 16.7 km/h / 4.6 m/s 22.2 km/h / 6.2 m/s 1.5 mm Rain Rain
8:35 AM 3.2 °C 0.7 °C 2.1 °C 93% 1007.7 hPa 4.8 km NW 9.3 km/h / 2.6 m/s - 3.0 mm Rain Rain
8:55 AM 3.0 °C -2.3 °C 1.8 °C 92% 1008.4 hPa 11.3 km WNW 27.8 km/h / 7.7 m/s 38.9 km/h / 10.8 m/s 3.6 mm Rain Light Rain
9:15 AM 2.5 °C -2.3 °C 1.2 °C 91% 1008.0 hPa 8.0 km WNW 22.2 km/h / 6.2 m/s 35.2 km/h / 9.8 m/s 0.3 mm Rain Light Rain
9:35 AM 2.3 °C -2.1 °C 1.0 °C 91% 1008.4 hPa 16.1 km NW 18.5 km/h / 5.1 m/s 25.9 km/h / 7.2 m/s 0.3 mm Rain Light Rain
9:55 AM 2.0 °C -3.8 °C 0.7 °C 91% 1010.0 hPa 4.8 km WNW 29.6 km/h / 8.2 m/s 38.9 km/h / 10.8 m/s 0.8 mm Rain Light Rain
10:15 AM 1.9 °C -3.5 °C 0.6 °C 91% 1009.4 hPa 6.4 km WNW 25.9 km/h / 7.2 m/s 31.5 km/h / 8.7 m/s 0.3 mm Rain Light Rain
10:35 AM 1.1 °C -5.0 °C 0.0 °C 92% 1010.0 hPa 11.3 km WNW 29.6 km/h / 8.2 m/s 37.0 km/h / 10.3 m/s 0.3 mm Rain Light Rain
11:15 AM 0.7 °C -3.8 °C -0.1 °C 94% 1010.0 hPa 3.2 km NW 16.7 km/h / 4.6 m/s 25.9 km/h / 7.2 m/s 1.5 mm Rain Rain
11:35 AM 0.8 °C -4.3 °C 0.0 °C 94% 1010.4 hPa 6.4 km WNW 20.4 km/h / 5.7 m/s - 2.3 mm Rain Light Rain
12:15 PM 0.2 °C -5.5 °C -0.7 °C 94% 1010.0 hPa 8.0 km WNW 24.1 km/h / 6.7 m/s - N/A Rain Light Rain
12:35 PM 0.0 °C -5.3 °C -1.0 °C 93% 1011.1 hPa 11.3 km WNW 20.4 km/h / 5.7 m/s 25.9 km/h / 7.2 m/s N/A Snow Light Snow
12:55 PM 0.0 °C -6.2 °C -1.2 °C 92% 1011.1 hPa 16.1 km WNW 27.8 km/h / 7.7 m/s 33.3 km/h / 9.3 m/s N/A   Overcast
1:15 PM 0.0 °C -5.3 °C -1.5 °C 90% 1011.1 hPa 16.1 km WNW 20.4 km/h / 5.7 m/s 29.6 km/h / 8.2 m/s N/A   Overcast
1:35 PM -0.3 °C -5.9 °C -1.7 °C 90% 1011.4 hPa 16.1 km WNW 22.2 km/h / 6.2 m/s 29.6 km/h / 8.2 m/s N/A   Overcast
1:55 PM -0.4 °C -5.2 °C -1.9 °C 90% 1011.4 hPa 11.3 km WNW 16.7 km/h / 4.6 m/s - N/A   Overcast
2:15 PM -0.5 °C -5.9 °C -1.8 °C 91% 1011.4 hPa 11.3 km WNW 20.4 km/h / 5.7 m/s - N/A   Overcast
2:35 PM -0.6 °C -6.5 °C -2.5 °C 87% 1011.7 hPa 16.1 km WNW 24.1 km/h / 6.7 m/s - N/A   Overcast
2:55 PM -0.9 °C -6.7 °C -2.6 °C 88% 1012.4 hPa 16.1 km WNW 22.2 km/h / 6.2 m/s 35.2 km/h / 9.8 m/s N/A   Overcast
3:15 PM -0.6 °C -5.7 °C -3.0 °C 84% 1012.8 hPa 16.1 km WNW 18.5 km/h / 5.1 m/s - N/A   Overcast
3:35 PM -0.3 °C -5.6 °C -2.8 °C 83% 1012.8 hPa 16.1 km WNW 20.4 km/h / 5.7 m/s 27.8 km/h / 7.7 m/s N/A   Overcast
3:55 PM -0.1 °C -5.1 °C -2.8 °C 82% 1014.1 hPa 16.1 km WNW 18.5 km/h / 5.1 m/s - N/A   Overcast
4:15 PM -0.1 °C -4.5 °C -2.8 °C 82% 1014.1 hPa 16.1 km West 14.8 km/h / 4.1 m/s - N/A   Overcast
4:35 PM 0.0 °C -5.0 °C -2.5 °C 83% 1014.1 hPa 16.1 km WNW 18.5 km/h / 5.1 m/s - N/A   Overcast
4:55 PM -0.2 °C -5.8 °C -3.3 °C 80% 1014.4 hPa 16.1 km WNW 22.2 km/h / 6.2 m/s 33.3 km/h / 9.3 m/s N/A   Overcast
5:15 PM -0.5 °C -6.4 °C -3.9 °C 78% 1014.8 hPa 16.1 km WNW 24.1 km/h / 6.7 m/s - N/A   Mostly Cloudy
5:35 PM -0.7 °C -5.6 °C -4.0 °C 79% 1015.1 hPa 16.1 km WNW 16.7 km/h / 4.6 m/s - N/A   Scattered Clouds
5:55 PM -1.0 °C -5.2 °C -3.7 °C 82% 1015.5 hPa 16.1 km WNW 13.0 km/h / 3.6 m/s - N/A   Scattered Clouds
6:15 PM -1.1 °C -7.2 °C -4.2 °C 80% 1016.1 hPa 16.1 km WNW 24.1 km/h / 6.7 m/s - N/A   Scattered Clouds
6:35 PM -1.5 °C -7.2 °C -4.5 °C 80% 1016.8 hPa 16.1 km West 20.4 km/h / 5.7 m/s 27.8 km/h / 7.7 m/s N/A   Scattered Clouds
6:55 PM -1.7 °C -7.1 °C -5.3 °C 77% 1017.2 hPa 16.1 km WNW 18.5 km/h / 5.1 m/s - N/A   Clear
7:15 PM -2.0 °C -6.8 °C -5.4 °C 78% 1017.8 hPa 16.1 km West 14.8 km/h / 4.1 m/s - N/A   Clear
7:35 PM -2.5 °C -6.6 °C -5.5 °C 80% 1017.8 hPa 16.1 km West 11.1 km/h / 3.1 m/s - N/A   Clear
7:55 PM -2.7 °C -6.3 °C -5.7 °C 80% 1018.2 hPa 16.1 km West 9.3 km/h / 2.6 m/s - N/A   Clear
8:15 PM -2.9 °C -6.5 °C -6.0 °C 79% 1018.2 hPa 16.1 km West 9.3 km/h / 2.6 m/s - N/A   Clear
8:35 PM -3.0 °C -7.6 °C -5.8 °C 81% 1018.2 hPa 16.1 km West 13.0 km/h / 3.6 m/s - N/A   Clear
8:55 PM -3.0 °C -8.4 °C -6.0 °C 80% 1018.5 hPa 16.1 km West 16.7 km/h / 4.6 m/s - N/A   Clear
9:15 PM -3.0 °C -8.0 °C -6.1 °C 79% 1018.8 hPa 16.1 km West 14.8 km/h / 4.1 m/s - N/A   Clear
9:35 PM -3.0 °C -9.6 °C -6.6 °C 77% 1018.8 hPa 16.1 km West 24.1 km/h / 6.7 m/s 29.6 km/h / 8.2 m/s N/A   Clear
9:55 PM -3.1 °C -8.9 °C -7.2 °C 74% 1019.5 hPa 16.1 km WNW 18.5 km/h / 5.1 m/s - N/A   Clear
10:15 PM -3.5 °C -8.3 °C -7.5 °C 74% 1019.5 hPa 16.1 km WNW 13.0 km/h / 3.6 m/s - N/A   Clear
10:35 PM -4.2 °C -8.1 °C -7.5 °C 78% 1019.9 hPa 16.1 km West 9.3 km/h / 2.6 m/s - N/A   Clear
10:55 PM -4.6 °C -7.9 °C -7.5 °C 80% 1020.2 hPa 16.1 km WSW 7.4 km/h / 2.1 m/s - N/A   Clear
11:15 PM -4.6 °C -8.6 °C -7.5 °C 80% 1020.2 hPa 16.1 km WSW 9.3 km/h / 2.6 m/s - N/A   Clear
11:35 PM -4.6 °C -8.6 °C -7.5 °C 80% 1020.2 hPa 16.1 km WSW 9.3 km/h / 2.6 m/s - N/A   Clear
11:55 PM -4.5 °C -9.5 °C -7.4 °C 80% 1020.2 hPa 16.1 km West 13.0 km/h / 3.6 m/s - N/A   Clear